KOREASAT 6

Last updated on Wed Sep 23 2026 00:03:31 GMT+0000 (Coordinated Universal Time)

1 37265U 10070B 26265.60855868 -.00000114 00000+0 00000+0 0 9993 2 37265 0.0197 147.8692 0002205 51.8152 180.7551 1.00272279 57740
UTC large
Height (km)
Speed (km/s)
/
Latitude / Longitude
Inclination (degrees)
Orbital Period (minutes)
Azimuth
Elevation
Range (km)
Doppler Factor

Next 0 passes for location: London (51.5072 / 0.1276)

No passes found over London.
KOREASAT 6